QPF
0.00 0.00 0.00 0.00 0.00 0.00 0.00 0.00 0.00 0.00 0.00 0.00 0.00 0.00 0.02 0.02 0.03 0.06 0.01 0.00 0.00 0.01 0.02 0.01 0.01 0.03 0.03 0.04 0.05 0.01 0.01 0.01 0.01 0.00 0.00 0.00 0.00 0.00 0.01 0.01 0.01 0.01 0.01 0.01 0.01 0.01 0.01 0.01 0.01
0.00 0.00 0.00 0.00 0.00 0.01 0.01 0.00 0.01 0.00 0.00 0.00 0.00 0.00 0.01 0.01 0.01 0.00 0.00 0.00 0.00 0.01 0.02 0.01 0.01 0.03 0.05 0.04 0.03 0.02 0.03 0.02 0.02 0.02 0.01 0.01 0.01 0.01 0.01 0.01 0.01 0.01 0.01 0.01 0.01 0.02 0.01 0.01 0.01
0.00 0.00 0.00 0.00 0.01 0.02 0.01 0.00 0.00 0.00 0.00 0.00 0.00 0.00 0.00 0.01 0.01 0.00 0.00 0.00 0.00 0.01 0.02 0.02 0.01 0.03 0.07 0.05 0.04 0.04 0.04 0.03 0.03 0.03 0.02 0.02 0.02 0.01 0.00 0.00 0.00 0.01 0.01 0.01 0.02 0.02 0.02 0.02 0.02
0.00 0.00 0.00 0.00 0.02 0.02 0.01 0.01 0.00 0.00 0.00 0.00 0.00 0.00 0.00 0.00 0.00 0.00 0.00 0.00 0.00 0.01 0.02 0.02 0.02 0.04 0.09 0.05 0.05 0.05 0.05 0.05 0.05 0.03 0.03 0.03 0.02 0.01 0.00 0.00 0.00 0.01 0.01 0.02 0.02 0.02 0.02 0.02 0.02
0.00 0.00 0.00 0.00 0.00 0.01 0.01 0.02 0.01 0.00 0.00 0.00 0.00 0.00 0.00 0.00 0.00 0.00 0.00 0.00 0.01 0.01 0.02 0.02 0.02 0.05 0.10 0.07 0.05 0.05 0.05 0.04 0.06 0.04 0.04 0.03 0.02 0.01 0.01 0.01 0.02 0.02 0.02 0.02 0.02 0.02 0.03 0.03 0.03
0.00 0.00 0.00 0.00 0.01 0.00 0.02 0.02 0.00 0.00 0.00 0.00 0.01 0.01 0.01 0.01 0.01 0.00 0.01 0.01 0.02 0.01 0.02 0.02 0.03 0.05 0.08 0.08 0.07 0.07 0.06 0.04 0.06 0.05 0.05 0.04 0.04 0.03 0.03 0.03 0.04 0.04 0.04 0.03 0.02 0.03 0.03 0.03 0.02
0.00 0.00 0.00 0.00 0.00 0.00 0.01 0.02 0.00 0.00 0.00 0.00 0.01 0.02 0.01 0.01 0.01 0.01 0.01 0.02 0.02 0.02 0.03 0.04 0.05 0.07 0.06 0.06 0.07 0.11 0.08 0.07 0.07 0.04 0.04 0.05 0.05 0.05 0.05 0.05 0.05 0.04 0.03 0.02 0.02 0.02 0.02 0.01 0.02
0.00 0.00 0.01 0.01 0.00 0.00 0.00 0.00 0.00 0.00 0.00 0.01 0.01 0.05 0.04 0.02 0.01 0.01 0.02 0.03 0.03 0.02 0.03 0.05 0.08 0.08 0.06 0.05 0.05 0.06 0.06 0.07 0.06 0.07 0.05 0.07 0.08 0.07 0.07 0.05 0.05 0.04 0.02 0.02 0.02 0.02 0.02 0.02 0.02
0.00 0.00 0.00 0.01 0.00 0.01 0.02 0.02 0.00 0.00 0.00 0.00 0.00 0.02 0.04 0.04 0.01 0.02 0.02 0.04 0.04 0.04 0.04 0.06 0.07 0.07 0.07 0.07 0.05 0.05 0.05 0.04 0.04 0.08 0.10 0.09 0.14 0.12 0.09 0.06 0.06 0.05 0.04 0.04 0.03 0.04 0.03 0.02 0.02
0.00 0.00 0.00 0.00 0.00 0.00 0.01 0.02 0.00 0.00 0.00 0.00 0.00 0.00 0.01 0.01 0.02 0.02 0.02 0.03 0.04 0.04 0.06 0.05 0.07 0.07 0.07 0.07 0.09 0.08 0.07 0.05 0.04 0.06 0.10 0.08 0.14 0.14 0.12 0.08 0.05 0.04 0.04 0.03 0.03 0.03 0.03 0.02 0.02
0.00 0.00 0.00 0.00 0.00 0.01 0.01 0.00 0.00 0.00 0.02 0.04 0.01 0.01 0.02 0.04 0.03 0.02 0.02 0.03 0.03 0.03 0.04 0.04 0.06 0.07 0.08 0.09 0.11 0.10 0.09 0.09 0.06 0.06 0.06 0.07 0.09 0.11 0.10 0.08 0.06 0.04 0.03 0.04 0.06 0.06 0.04 0.03 0.03
0.00 0.00 0.00 0.00 0.00 0.00 0.00 0.00 0.00 0.00 0.02 0.05 0.02 0.01 0.04 0.04 0.03 0.02 0.03 0.03 0.03 0.03 0.04 0.03 0.04 0.06 0.07 0.09 0.10 0.10 0.09 0.09 0.09 0.10 0.07 0.09 0.10 0.08 0.08 0.07 0.07 0.08 0.08 0.08 0.09 0.08 0.05 0.05 0.04
0.00 0.00 0.00 0.00 0.00 0.00 0.00 0.00 0.00 0.00 0.00 0.01 0.01 0.01 0.02 0.05 0.03 0.03 0.03 0.03 0.03 0.03 0.04 0.04 0.04 0.04 0.07 0.08 0.08 0.09 0.09 0.09 0.09 0.09 0.07 0.07 0.08 0.08 0.07 0.07 0.09 0.09 0.09 0.10 0.09 0.08 0.08 0.07 0.05
0.00 0.00 0.00 0.00 0.00 0.00 0.00 0.00 0.00 0.00 0.00 0.00 0.00 0.00 0.00 0.01 0.03 0.03 0.04 0.04 0.04 0.03 0.03 0.04 0.05 0.04 0.04 0.05 0.06 0.06 0.07 0.06 0.05 0.04 0.04 0.05 0.06 0.06 0.07 0.09 0.11 0.09 0.07 0.08 0.09 0.10 0.09 0.08 0.06
0.00 0.00 0.00 0.00 0.00 0.00 0.00 0.00 0.00 0.00 0.00 0.00 0.00 0.00 0.00 0.01 0.01 0.02 0.04 0.05 0.06 0.05 0.04 0.04 0.04 0.04 0.04 0.03 0.04 0.04 0.05 0.05 0.04 0.04 0.04 0.05 0.06 0.09 0.09 0.09 0.10 0.10 0.11 0.11 0.10 0.11 0.12 0.12 0.10
0.00 0.00 0.00 0.00 0.00 0.00 0.00 0.02 0.02 0.01 0.00 0.00 0.00 0.00 0.00 0.01 0.01 0.03 0.07 0.06 0.07 0.08 0.08 0.05 0.04 0.05 0.05 0.05 0.05 0.04 0.03 0.03 0.03 0.04 0.06 0.05 0.06 0.08 0.08 0.07 0.07 0.08 0.09 0.09 0.09 0.09 0.09 0.10 0.11
0.00 0.00 0.00 0.00 0.00 0.00 0.01 0.05 0.04 0.04 0.01 0.01 0.01 0.00 0.00 0.01 0.01 0.02 0.05 0.06 0.06 0.09 0.11 0.08 0.05 0.05 0.06 0.06 0.05 0.04 0.04 0.04 0.04 0.04 0.04 0.04 0.04 0.04 0.05 0.05 0.05 0.05 0.07 0.07 0.07 0.09 0.09 0.09 0.10
0.01 0.00 0.00 0.00 0.00 0.01 0.01 0.04 0.04 0.05 0.04 0.02 0.01 0.00 0.01 0.01 0.01 0.03 0.05 0.06 0.07 0.07 0.08 0.07 0.06 0.05 0.05 0.05 0.04 0.04 0.05 0.05 0.05 0.04 0.03 0.04 0.04 0.05 0.07 0.05 0.06 0.06 0.07 0.08 0.08 0.08 0.08 0.09 0.09
0.00 0.00 0.00 0.00 0.00 0.01 0.01 0.02 0.03 0.04 0.03 0.02 0.00 0.00 0.01 0.01 0.02 0.04 0.06 0.05 0.04 0.05 0.05 0.05 0.04 0.03 0.04 0.05 0.06 0.06 0.07 0.06 0.05 0.04 0.04 0.04 0.04 0.05 0.06 0.06 0.06 0.07 0.08 0.08 0.08 0.07 0.07 0.07 0.08
0.00 0.00 0.00 0.00 0.00 0.00 0.00 0.01 0.03 0.03 0.02 0.01 0.01 0.00 0.01 0.01 0.03 0.04 0.04 0.03 0.03 0.05 0.05 0.05 0.03 0.03 0.05 0.07 0.09 0.08 0.07 0.06 0.07 0.06 0.06 0.06 0.05 0.05 0.05 0.06 0.06 0.07 0.09 0.09 0.07 0.07 0.06 0.05 0.05
0.00 0.00 0.00 0.00 0.00 0.01 0.01 0.01 0.01 0.03 0.02 0.02 0.02 0.02 0.01 0.01 0.03 0.05 0.04 0.03 0.03 0.05 0.04 0.04 0.05 0.05 0.05 0.06 0.09 0.08 0.07 0.07 0.07 0.07 0.08 0.07 0.07 0.05 0.05 0.05 0.05 0.06 0.07 0.08 0.07 0.06 0.06 0.05 0.05
0.00 0.00 0.00 0.00 0.01 0.01 0.01 0.03 0.02 0.03 0.02 0.02 0.02 0.02 0.01 0.01 0.02 0.05 0.07 0.04 0.03 0.04 0.03 0.03 0.04 0.05 0.05 0.05 0.06 0.08 0.08 0.07 0.08 0.09 0.08 0.08 0.09 0.09 0.06 0.04 0.04 0.04 0.04 0.05 0.05 0.05 0.05 0.05 0.04
0.00 0.00 0.00 0.00 0.01 0.01 0.01 0.02 0.04 0.05 0.03 0.02 0.02 0.02 0.01 0.01 0.01 0.02 0.06 0.07 0.04 0.03 0.04 0.03 0.03 0.04 0.04 0.05 0.04 0.05 0.07 0.09 0.09 0.09 0.10 0.11 0.10 0.09 0.07 0.04 0.03 0.03 0.03 0.04 0.04 0.04 0.04 0.04 0.04
0.00 0.00 0.00 0.00 0.00 0.01 0.01 0.02 0.05 0.05 0.05 0.06 0.05 0.03 0.01 0.01 0.01 0.01 0.02 0.06 0.07 0.04 0.03 0.03 0.03 0.03 0.03 0.03 0.03 0.04 0.04 0.06 0.07 0.08 0.10 0.11 0.10 0.09 0.07 0.06 0.05 0.04 0.04 0.04 0.05 0.05 0.04 0.04 0.04
0.00 0.01 0.02 0.02 0.03 0.03 0.02 0.03 0.06 0.06 0.07 0.07 0.06 0.03 0.04 0.05 0.02 0.02 0.01 0.03 0.04 0.05 0.06 0.04 0.04 0.04 0.03 0.03 0.04 0.03 0.03 0.04 0.03 0.04 0.06 0.09 0.09 0.07 0.07 0.07 0.07 0.05 0.04 0.04 0.05 0.05 0.05 0.04 0.04
0.00 0.01 0.03 0.05 0.04 0.04 0.03 0.04 0.05 0.04 0.05 0.05 0.04 0.02 0.05 0.05 0.02 0.02 0.02 0.03 0.03 0.04 0.06 0.06 0.05 0.05 0.04 0.04 0.04 0.02 0.03 0.04 0.05 0.05 0.03 0.05 0.09 0.10 0.09 0.09 0.12 0.11 0.09 0.07 0.06 0.06 0.05 0.05 0.05
0.00 0.00 0.01 0.03 0.04 0.04 0.04 0.04 0.04 0.02 0.03 0.03 0.03 0.02 0.01 0.02 0.02 0.04 0.03 0.02 0.03 0.04 0.04 0.05 0.04 0.04 0.03 0.03 0.03 0.02 0.02 0.02 0.04 0.05 0.04 0.03 0.06 0.10 0.13 0.15 0.17 0.14 0.11 0.11 0.10 0.08 0.06 0.06 0.05
0.00 0.00 0.01 0.04 0.07 0.09 0.07 0.07 0.05 0.05 0.08 0.10 0.09 0.06 0.03 0.02 0.02 0.02 0.04 0.05 0.04 0.05 0.04 0.04 0.04 0.03 0.03 0.04 0.03 0.02 0.02 0.02 0.03 0.04 0.03 0.03 0.02 0.02 0.04 0.07 0.10 0.10 0.09 0.08 0.09 0.08 0.07 0.06 0.05
0.00 0.01 0.02 0.04 0.05 0.09 0.10 0.08 0.06 0.08 0.13 0.11 0.09 0.06 0.03 0.02 0.02 0.02 0.03 0.05 0.05 0.05 0.05 0.05 0.05 0.04 0.04 0.04 0.03 0.02 0.02 0.02 0.03 0.04 0.04 0.02 0.01 0.01 0.01 0.02 0.03 0.04 0.05 0.05 0.07 0.06 0.05 0.05 0.04
0.01 0.02 0.02 0.04 0.05 0.05 0.08 0.08 0.06 0.06 0.12 0.11 0.07 0.05 0.02 0.01 0.04 0.07 0.06 0.04 0.05 0.06 0.07 0.06 0.04 0.03 0.03 0.03 0.03 0.02 0.03 0.03 0.04 0.04 0.04 0.03 0.03 0.02 0.02 0.02 0.02 0.01 0.02 0.04 0.04 0.05 0.04 0.05 0.04
MSLP
1008.03 1008.35 1008.68 1008.95 1009.12 1009.18 1009.14 1009.05 1008.95 1008.85 1008.75 1008.63 1008.45 1008.17 1007.78 1007.29 1006.77 1006.29 1005.97 1005.86 1006.02 1006.45 1007.11 1007.90 1008.72 1009.49 1010.12 1010.59 1010.90 1011.12 1011.29 1011.48 1011.74 1012.07 1012.48 1012.93 1013.36 1013.73 1014.03 1014.22 1014.33 1014.38 1014.40 1014.43 1014.48 1014.56 1014.67 1014.79 1014.89
1008.12 1008.49 1008.81 1009.02 1009.07 1008.98 1008.78 1008.54 1008.29 1008.08 1007.89 1007.71 1007.49 1007.20 1006.82 1006.38 1005.93 1005.56 1005.36 1005.40 1005.71 1006.29 1007.07 1007.96 1008.85 1009.64 1010.28 1010.73 1011.03 1011.23 1011.38 1011.57 1011.84 1012.19 1012.60 1013.05 1013.47 1013.83 1014.10 1014.27 1014.37 1014.41 1014.45 1014.49 1014.57 1014.68 1014.80 1014.92 1015.01
1008.30 1008.70 1008.98 1009.08 1008.99 1008.74 1008.38 1007.99 1007.62 1007.31 1007.06 1006.84 1006.60 1006.32 1005.97 1005.58 1005.20 1004.92 1004.83 1004.98 1005.42 1006.11 1006.99 1007.96 1008.91 1009.74 1010.40 1010.87 1011.18 1011.39 1011.56 1011.76 1012.03 1012.38 1012.79 1013.20 1013.59 1013.90 1014.13 1014.26 1014.34 1014.38 1014.44 1014.52 1014.64 1014.79 1014.95 1015.08 1015.17
1008.53 1008.90 1009.10 1009.07 1008.83 1008.41 1007.90 1007.38 1006.92 1006.56 1006.30 1006.08 1005.87 1005.63 1005.32 1004.98 1004.67 1004.46 1004.44 1004.68 1005.19 1005.96 1006.90 1007.93 1008.93 1009.80 1010.49 1011.00 1011.34 1011.58 1011.79 1012.02 1012.30 1012.65 1013.02 1013.40 1013.72 1013.98 1014.15 1014.24 1014.29 1014.34 1014.41 1014.53 1014.70 1014.90 1015.10 1015.26 1015.36
1008.72 1009.02 1009.09 1008.91 1008.50 1007.93 1007.30 1006.70 1006.21 1005.85 1005.62 1005.47 1005.33 1005.15 1004.92 1004.65 1004.39 1004.23 1004.26 1004.54 1005.09 1005.89 1006.86 1007.90 1008.92 1009.82 1010.54 1011.09 1011.48 1011.77 1012.02 1012.28 1012.58 1012.91 1013.26 1013.59 1013.86 1014.05 1014.16 1014.21 1014.24 1014.29 1014.38 1014.53 1014.74 1014.98 1015.22 1015.41 1015.52
1008.79 1008.96 1008.88 1008.53 1007.96 1007.27 1006.56 1005.93 1005.45 1005.17 1005.03 1004.98 1004.96 1004.89 1004.75 1004.56 1004.36 1004.25 1004.30 1004.59 1005.14 1005.92 1006.87 1007.89 1008.90 1009.79 1010.53 1011.11 1011.54 1011.87 1012.17 1012.46 1012.77 1013.11 1013.43 1013.72 1013.94 1014.08 1014.15 1014.17 1014.18 1014.22 1014.33 1014.50 1014.73 1015.00 1015.25 1015.46 1015.59
1008.69 1008.70 1008.43 1007.91 1007.21 1006.43 1005.68 1005.08 1004.67 1004.49 1004.49 1004.59 1004.71 1004.77 1004.75 1004.65 1004.52 1004.45 1004.52 1004.80 1005.31 1006.04 1006.93 1007.90 1008.85 1009.71 1010.44 1011.02 1011.47 1011.83 1012.16 1012.48 1012.81 1013.14 1013.45 1013.71 1013.90 1014.02 1014.06 1014.07 1014.08 1014.12 1014.23 1014.41 1014.65 1014.91 1015.17 1015.38 1015.51
1008.42 1008.24 1007.80 1007.14 1006.33 1005.50 1004.76 1004.21 1003.91 1003.86 1004.01 1004.26 1004.53 1004.73 1004.83 1004.83 1004.78 1004.75 1004.84 1005.10 1005.56 1006.22 1007.03 1007.91 1008.78 1009.57 1010.25 1010.80 1011.25 1011.62 1011.96 1012.30 1012.64 1012.97 1013.28 1013.53 1013.71 1013.82 1013.87 1013.89 1013.91 1013.96 1014.07 1014.24 1014.47 1014.71 1014.95 1015.14 1015.26
1008.01 1007.66 1007.08 1006.31 1005.44 1004.61 1003.91 1003.45 1003.25 1003.33 1003.60 1003.98 1004.37 1004.69 1004.90 1004.99 1005.02 1005.05 1005.16 1005.40 1005.82 1006.41 1007.12 1007.89 1008.65 1009.36 1009.96 1010.47 1010.89 1011.25 1011.59 1011.93 1012.27 1012.60 1012.91 1013.17 1013.37 1013.50 1013.58 1013.62 1013.67 1013.74 1013.86 1014.02 1014.22 1014.43 1014.62 1014.78 1014.87
1007.54 1007.07 1006.39 1005.57 1004.70 1003.90 1003.26 1002.88 1002.78 1002.94 1003.29 1003.75 1004.21 1004.61 1004.90 1005.07 1005.17 1005.26 1005.41 1005.66 1006.05 1006.57 1007.18 1007.84 1008.50 1009.10 1009.62 1010.06 1010.43 1010.77 1011.09 1011.42 1011.76 1012.10 1012.42 1012.70 1012.92 1013.09 1013.21 1013.30 1013.39 1013.49 1013.61 1013.76 1013.93 1014.10 1014.24 1014.34 1014.40
1007.10 1006.56 1005.85 1005.04 1004.21 1003.48 1002.92 1002.61 1002.56 1002.75 1003.12 1003.58 1004.05 1004.46 1004.78 1005.01 1005.18 1005.34 1005.53 1005.81 1006.19 1006.67 1007.21 1007.77 1008.32 1008.82 1009.26 1009.63 1009.96 1010.27 1010.58 1010.90 1011.23 1011.57 1011.90 1012.19 1012.45 1012.66 1012.83 1012.97 1013.11 1013.24 1013.38 1013.52 1013.66 1013.78 1013.87 1013.91 1013.91
1006.76 1006.22 1005.54 1004.79 1004.05 1003.40 1002.92 1002.65 1002.61 1002.77 1003.07 1003.46 1003.86 1004.24 1004.55 1004.81 1005.03 1005.26 1005.53 1005.85 1006.25 1006.71 1007.20 1007.70 1008.16 1008.58 1008.95 1009.27 1009.57 1009.85 1010.15 1010.47 1010.80 1011.14 1011.46 1011.77 1012.05 1012.29 1012.51 1012.70 1012.88 1013.05 1013.20 1013.34 1013.46 1013.54 1013.57 1013.55 1013.49
1006.57 1006.07 1005.47 1004.82 1004.19 1003.64 1003.23 1002.98 1002.89 1002.96 1003.14 1003.38 1003.66 1003.94 1004.21 1004.47 1004.75 1005.05 1005.40 1005.80 1006.24 1006.71 1007.18 1007.63 1008.04 1008.41 1008.73 1009.02 1009.31 1009.60 1009.90 1010.22 1010.55 1010.89 1011.22 1011.52 1011.80 1012.06 1012.30 1012.53 1012.74 1012.94 1013.11 1013.26 1013.35 1013.40 1013.38 1013.31 1013.18
1006.49 1006.06 1005.55 1005.03 1004.52 1004.08 1003.72 1003.46 1003.30 1003.24 1003.24 1003.31 1003.42 1003.58 1003.79 1004.05 1004.37 1004.75 1005.20 1005.68 1006.19 1006.70 1007.17 1007.61 1007.99 1008.33 1008.64 1008.93 1009.23 1009.54 1009.87 1010.21 1010.56 1010.89 1011.21 1011.50 1011.76 1012.01 1012.25 1012.49 1012.71 1012.93 1013.12 1013.26 1013.35 1013.37 1013.32 1013.20 1013.02
1006.44 1006.08 1005.67 1005.27 1004.89 1004.54 1004.22 1003.95 1003.71 1003.49 1003.32 1003.20 1003.14 1003.17 1003.31 1003.57 1003.94 1004.42 1004.97 1005.56 1006.14 1006.70 1007.19 1007.63 1008.00 1008.34 1008.65 1008.97 1009.31 1009.66 1010.04 1010.41 1010.78 1011.12 1011.42 1011.68 1011.91 1012.13 1012.35 1012.57 1012.79 1013.01 1013.20 1013.35 1013.43 1013.44 1013.36 1013.20 1012.98
1006.32 1006.01 1005.69 1005.40 1005.13 1004.87 1004.60 1004.31 1003.99 1003.65 1003.31 1003.01 1002.81 1002.74 1002.83 1003.10 1003.54 1004.11 1004.77 1005.45 1006.12 1006.73 1007.25 1007.69 1008.07 1008.41 1008.75 1009.10 1009.49 1009.91 1010.34 1010.77 1011.16 1011.50 1011.78 1012.01 1012.21 1012.38 1012.55 1012.74 1012.94 1013.15 1013.34 1013.49 1013.57 1013.57 1013.48 1013.31 1013.06
1006.03 1005.74 1005.50 1005.30 1005.14 1004.97 1004.75 1004.46 1004.09 1003.65 1003.19 1002.77 1002.46 1002.31 1002.39 1002.69 1003.20 1003.87 1004.63 1005.41 1006.15 1006.80 1007.35 1007.80 1008.17 1008.52 1008.88 1009.28 1009.72 1010.20 1010.70 1011.17 1011.60 1011.95 1012.22 1012.42 1012.57 1012.69 1012.82 1012.96 1013.14 1013.33 1013.51 1013.65 1013.74 1013.75 1013.66 1013.48 1013.22
1005.51 1005.23 1005.05 1004.95 1004.89 1004.82 1004.68 1004.42 1004.03 1003.54 1003.01 1002.51 1002.13 1001.96 1002.04 1002.38 1002.97 1003.73 1004.58 1005.44 1006.24 1006.92 1007.48 1007.92 1008.29 1008.64 1009.01 1009.44 1009.93 1010.47 1011.02 1011.55 1012.01 1012.38 1012.65 1012.82 1012.94 1013.02 1013.10 1013.21 1013.35 1013.52 1013.69 1013.84 1013.93 1013.95 1013.86 1013.69 1013.44
1004.77 1004.51 1004.39 1004.40 1004.46 1004.50 1004.45 1004.26 1003.91 1003.41 1002.85 1002.33 1001.93 1001.76 1001.86 1002.25 1002.90 1003.73 1004.66 1005.57 1006.40 1007.09 1007.64 1008.07 1008.41 1008.75 1009.12 1009.57 1010.09 1010.67 1011.28 1011.85 1012.34 1012.73 1013.00 1013.17 1013.26 1013.31 1013.37 1013.45 1013.57 1013.73 1013.89 1014.04 1014.14 1014.16 1014.10 1013.95 1013.71
1003.89 1003.68 1003.65 1003.78 1003.98 1004.16 1004.23 1004.14 1003.85 1003.39 1002.85 1002.33 1001.94 1001.78 1001.90 1002.33 1003.02 1003.90 1004.86 1005.80 1006.63 1007.32 1007.84 1008.24 1008.55 1008.87 1009.23 1009.67 1010.21 1010.82 1011.45 1012.06 1012.58 1012.98 1013.26 1013.43 1013.52 1013.56 1013.60 1013.68 1013.79 1013.94 1014.10 1014.26 1014.36 1014.40 1014.35 1014.22 1014.02
1003.03 1002.90 1003.00 1003.27 1003.63 1003.97 1004.18 1004.21 1004.01 1003.62 1003.12 1002.62 1002.24 1002.09 1002.22 1002.65 1003.36 1004.24 1005.20 1006.13 1006.95 1007.60 1008.10 1008.45 1008.73 1009.02 1009.36 1009.79 1010.33 1010.94 1011.59 1012.21 1012.74 1013.16 1013.45 1013.63 1013.72 1013.77 1013.81 1013.89 1014.01 1014.16 1014.32 1014.48 1014.59 1014.64 1014.61 1014.51 1014.35
1002.38 1002.37 1002.61 1003.04 1003.56 1004.06 1004.43 1004.58 1004.48 1004.16 1003.71 1003.24 1002.87 1002.70 1002.82 1003.23 1003.90 1004.75 1005.67 1006.56 1007.34 1007.96 1008.41 1008.73 1008.98 1009.24 1009.55 1009.97 1010.49 1011.10 1011.73 1012.35 1012.88 1013.31 1013.60 1013.78 1013.89 1013.94 1014.00 1014.08 1014.21 1014.36 1014.53 1014.69 1014.80 1014.86 1014.85 1014.77 1014.64
1002.10 1002.21 1002.59 1003.17 1003.84 1004.49 1004.99 1005.26 1005.26 1005.01 1004.60 1004.15 1003.77 1003.58 1003.65 1004.01 1004.61 1005.40 1006.25 1007.08 1007.81 1008.38 1008.80 1009.09 1009.31 1009.55 1009.85 1010.24 1010.74 1011.33 1011.94 1012.53 1013.05 1013.46 1013.75 1013.93 1014.03 1014.10 1014.16 1014.25 1014.38 1014.53 1014.70 1014.85 1014.96 1015.02 1015.02 1014.96 1014.86
1002.29 1002.50 1002.98 1003.67 1004.46 1005.22 1005.82 1006.18 1006.26 1006.07 1005.70 1005.26 1004.86 1004.64 1004.65 1004.92 1005.44 1006.14 1006.91 1007.67 1008.33 1008.86 1009.25 1009.52 1009.74 1009.96 1010.25 1010.62 1011.10 1011.65 1012.23 1012.79 1013.27 1013.65 1013.91 1014.08 1014.17 1014.23 1014.29 1014.38 1014.50 1014.65 1014.81 1014.95 1015.05 1015.10 1015.10 1015.05 1014.96
1002.97 1003.22 1003.75 1004.48 1005.32 1006.12 1006.78 1007.20 1007.33 1007.19 1006.85 1006.41 1006.01 1005.75 1005.70 1005.89 1006.32 1006.92 1007.61 1008.29 1008.90 1009.39 1009.75 1010.02 1010.23 1010.46 1010.74 1011.10 1011.55 1012.06 1012.60 1013.11 1013.54 1013.87 1014.10 1014.23 1014.30 1014.33 1014.38 1014.45 1014.56 1014.69 1014.83 1014.96 1015.05 1015.08 1015.07 1015.01 1014.93
1004.08 1004.28 1004.77 1005.46 1006.27 1007.06 1007.71 1008.14 1008.31 1008.19 1007.89 1007.47 1007.07 1006.79 1006.69 1006.82 1007.17 1007.69 1008.30 1008.91 1009.47 1009.94 1010.29 1010.56 1010.78 1011.01 1011.28 1011.63 1012.05 1012.52 1013.01 1013.46 1013.83 1014.11 1014.29 1014.37 1014.40 1014.41 1014.43 1014.47 1014.56 1014.67 1014.79 1014.89 1014.96 1014.98 1014.95 1014.87 1014.78
1005.46 1005.55 1005.90 1006.48 1007.18 1007.88 1008.49 1008.89 1009.06 1008.97 1008.69 1008.31 1007.93 1007.65 1007.54 1007.64 1007.94 1008.40 1008.95 1009.51 1010.04 1010.48 1010.83 1011.10 1011.34 1011.57 1011.84 1012.17 1012.56 1012.98 1013.41 1013.80 1014.12 1014.34 1014.46 1014.50 1014.49 1014.46 1014.44 1014.46 1014.52 1014.60 1014.70 1014.78 1014.83 1014.82 1014.76 1014.67 1014.55
1006.98 1006.88 1007.04 1007.43 1007.96 1008.54 1009.04 1009.39 1009.53 1009.45 1009.21 1008.88 1008.54 1008.30 1008.20 1008.30 1008.58 1009.01 1009.53 1010.07 1010.58 1011.01 1011.36 1011.64 1011.87 1012.11 1012.37 1012.67 1013.03 1013.41 1013.78 1014.11 1014.37 1014.53 1014.61 1014.60 1014.55 1014.49 1014.44 1014.43 1014.47 1014.53 1014.61 1014.67 1014.69 1014.67 1014.58 1014.45 1014.29
1008.48 1008.17 1008.12 1008.30 1008.63 1009.04 1009.41 1009.67 1009.77 1009.69 1009.48 1009.19 1008.92 1008.72 1008.67 1008.79 1009.09 1009.53 1010.04 1010.58 1011.08 1011.51 1011.87 1012.14 1012.38 1012.60 1012.84 1013.12 1013.43 1013.76 1014.08 1014.36 1014.56 1014.69 1014.72 1014.68 1014.61 1014.52 1014.45 1014.42 1014.44 1014.49 1014.55 1014.59 1014.60 1014.55 1014.44 1014.27 1014.06
1009.89 1009.40 1009.16 1009.14 1009.28 1009.51 1009.73 1009.88 1009.92 1009.82 1009.62 1009.37 1009.14 1009.00 1009.01 1009.18 1009.51 1009.96 1010.49 1011.04 1011.55 1011.98 1012.34 1012.61 1012.84 1013.04 1013.25 1013.49 1013.76 1014.04 1014.31 1014.54 1014.71 1014.80 1014.81 1014.75 1014.66 1014.56 1014.48 1014.44 1014.45 1014.48 1014.53 1014.57 1014.56 1014.50 1014.35 1014.14 1013.88
Thickness
5810 5814 5817 5813 5799 5794 5799 5821 5836 5833 5834 5841 5841 5834 5822 5813 5804 5793 5824 5836 5831 5820 5811 5805 5799 5795 5791 5787 5783 5780 5777 5773 5771 5768 5765 5763 5760 5758 5756 5753 5751 5750 5748 5746 5744 5743 5741 5740 5739
5813 5818 5815 5806 5791 5782 5800 5827 5828 5832 5839 5844 5841 5834 5824 5818 5824 5823 5827 5831 5827 5818 5810 5804 5797 5793 5789 5784 5780 5777 5773 5770 5767 5765 5762 5760 5757 5755 5753 5750 5748 5747 5745 5743 5742 5740 5738 5737 5736
5811 5818 5806 5800 5791 5790 5805 5829 5834 5841 5845 5841 5834 5834 5824 5817 5825 5825 5829 5830 5824 5815 5807 5800 5795 5790 5786 5782 5777 5773 5770 5767 5764 5761 5759 5756 5754 5752 5750 5747 5745 5743 5742 5740 5739 5737 5735 5734 5733
5809 5810 5805 5797 5792 5814 5822 5832 5838 5838 5839 5841 5833 5824 5825 5831 5831 5829 5831 5828 5819 5812 5805 5796 5792 5787 5783 5778 5774 5770 5767 5764 5761 5758 5756 5753 5751 5748 5746 5744 5742 5740 5738 5737 5735 5733 5732 5731 5729
5809 5801 5792 5793 5804 5825 5837 5840 5842 5834 5830 5834 5830 5815 5814 5830 5835 5832 5828 5824 5816 5809 5803 5793 5788 5784 5779 5775 5771 5767 5764 5761 5758 5755 5752 5750 5748 5745 5743 5741 5739 5737 5735 5733 5732 5730 5729 5728 5726
5799 5801 5785 5788 5810 5831 5841 5843 5841 5833 5831 5832 5826 5813 5812 5826 5827 5826 5825 5820 5816 5808 5800 5790 5784 5781 5776 5772 5768 5764 5761 5759 5756 5752 5750 5747 5745 5742 5740 5738 5735 5734 5732 5730 5728 5727 5726 5725 5723
5793 5792 5787 5798 5810 5825 5837 5844 5835 5828 5826 5829 5831 5813 5809 5817 5824 5825 5822 5818 5813 5807 5798 5788 5782 5777 5773 5769 5765 5762 5758 5756 5753 5750 5747 5744 5741 5739 5737 5735 5732 5730 5729 5727 5725 5724 5722 5721 5720
5806 5795 5789 5801 5808 5821 5840 5844 5841 5832 5826 5838 5835 5811 5801 5810 5821 5821 5818 5814 5809 5804 5796 5788 5782 5776 5771 5766 5762 5759 5756 5753 5750 5747 5743 5741 5738 5736 5734 5732 5730 5728 5725 5724 5722 5721 5720 5719 5718
5810 5787 5783 5802 5811 5823 5838 5834 5838 5843 5834 5832 5830 5822 5815 5819 5818 5814 5808 5804 5801 5798 5793 5787 5782 5776 5772 5766 5761 5757 5753 5750 5747 5744 5741 5738 5735 5734 5732 5730 5727 5725 5723 5721 5719 5718 5717 5716 5716
5801 5782 5794 5819 5828 5826 5831 5830 5830 5828 5820 5819 5819 5819 5819 5815 5811 5804 5799 5794 5792 5791 5789 5786 5780 5775 5771 5767 5761 5756 5753 5748 5744 5741 5738 5735 5733 5732 5731 5728 5725 5723 5721 5718 5716 5715 5714 5713 5714
5803 5794 5808 5822 5830 5828 5824 5826 5831 5819 5807 5811 5811 5809 5809 5806 5802 5799 5795 5793 5791 5789 5786 5784 5779 5774 5770 5765 5759 5755 5752 5747 5742 5739 5736 5733 5731 5729 5728 5725 5722 5719 5717 5715 5714 5712 5711 5711 5711
5804 5808 5816 5819 5826 5823 5820 5822 5819 5817 5813 5822 5819 5815 5807 5802 5798 5796 5793 5791 5789 5786 5782 5782 5777 5771 5767 5763 5758 5754 5750 5745 5741 5737 5734 5731 5728 5727 5725 5722 5719 5716 5714 5712 5711 5709 5708 5708 5708
5804 5809 5817 5821 5822 5823 5821 5816 5815 5815 5823 5823 5819 5812 5804 5800 5798 5796 5795 5791 5786 5780 5777 5775 5774 5768 5763 5759 5754 5751 5748 5744 5740 5736 5732 5729 5726 5723 5721 5718 5715 5713 5710 5708 5706 5705 5704 5703 5703
5806 5811 5814 5818 5818 5819 5813 5814 5812 5814 5822 5817 5811 5804 5802 5798 5794 5791 5787 5783 5779 5775 5774 5770 5768 5765 5760 5755 5750 5748 5746 5742 5739 5734 5730 5727 5724 5720 5717 5713 5711 5708 5706 5704 5702 5700 5699 5698 5698
5811 5803 5805 5813 5817 5817 5811 5799 5806 5816 5816 5809 5806 5802 5799 5794 5791 5786 5781 5777 5774 5771 5769 5766 5763 5760 5755 5751 5748 5745 5743 5740 5736 5732 5728 5724 5720 5716 5713 5709 5706 5704 5701 5700 5698 5697 5695 5694 5693
5802 5793 5789 5810 5818 5818 5801 5782 5802 5814 5808 5801 5800 5799 5795 5791 5789 5784 5778 5773 5771 5767 5763 5761 5760 5754 5751 5748 5744 5742 5739 5736 5732 5729 5724 5720 5716 5713 5709 5705 5702 5700 5697 5695 5693 5691 5689 5687 5686
5787 5780 5786 5801 5818 5814 5798 5782 5795 5807 5802 5796 5795 5793 5790 5785 5783 5780 5776 5771 5767 5762 5758 5754 5753 5749 5745 5742 5740 5736 5734 5731 5728 5725 5720 5716 5713 5709 5705 5701 5698 5695 5693 5691 5689 5686 5683 5680 5680
5776 5781 5784 5790 5808 5806 5794 5785 5790 5798 5796 5793 5792 5789 5786 5781 5778 5777 5773 5769 5763 5759 5755 5751 5748 5745 5741 5736 5734 5730 5728 5726 5724 5720 5716 5713 5709 5705 5701 5698 5694 5692 5689 5686 5683 5680 5679 5677 5676
5790 5784 5783 5794 5811 5800 5791 5786 5789 5794 5791 5787 5788 5785 5782 5779 5778 5774 5770 5765 5760 5755 5750 5747 5743 5741 5737 5732 5728 5724 5722 5721 5718 5715 5712 5709 5705 5701 5697 5694 5691 5688 5684 5681 5678 5676 5673 5672 5672
5788 5783 5785 5797 5808 5799 5788 5786 5792 5791 5789 5788 5784 5781 5780 5775 5771 5767 5764 5760 5755 5750 5747 5744 5740 5737 5733 5729 5726 5722 5720 5717 5714 5712 5709 5705 5701 5698 5695 5690 5686 5683 5679 5676 5673 5670 5667 5667 5666
5782 5779 5780 5781 5791 5796 5786 5779 5785 5789 5790 5788 5786 5784 5781 5775 5767 5763 5760 5756 5753 5748 5744 5741 5737 5733 5730 5726 5723 5719 5716 5713 5709 5705 5703 5700 5696 5693 5691 5688 5683 5679 5676 5672 5669 5666 5662 5659 5660
5773 5789 5786 5781 5772 5769 5777 5756 5769 5775 5776 5778 5778 5779 5777 5773 5767 5761 5757 5752 5749 5746 5742 5738 5734 5730 5726 5722 5718 5714 5709 5706 5704 5701 5698 5694 5691 5687 5685 5682 5679 5675 5672 5669 5666 5663 5660 5656 5653
5779 5791 5785 5781 5773 5765 5769 5756 5758 5769 5762 5768 5770 5771 5771 5770 5764 5758 5755 5751 5748 5744 5738 5734 5730 5726 5722 5718 5714 5710 5706 5703 5700 5697 5693 5688 5685 5682 5680 5677 5674 5671 5668 5665 5662 5659 5656 5653 5650
5787 5781 5780 5779 5772 5748 5757 5746 5740 5754 5752 5758 5762 5763 5765 5763 5760 5755 5753 5749 5744 5741 5736 5731 5725 5721 5718 5714 5710 5705 5701 5698 5694 5690 5687 5684 5680 5677 5674 5672 5669 5666 5664 5661 5658 5655 5652 5649 5646
5775 5755 5738 5735 5735 5737 5757 5744 5739 5757 5758 5756 5757 5758 5758 5757 5754 5748 5745 5742 5737 5734 5730 5727 5722 5716 5713 5710 5705 5701 5697 5694 5690 5686 5683 5678 5674 5671 5669 5667 5665 5662 5659 5657 5654 5651 5648 5645 5642
5761 5750 5724 5709 5711 5729 5745 5733 5742 5759 5761 5757 5757 5756 5753 5750 5747 5743 5740 5738 5733 5729 5725 5722 5716 5712 5709 5705 5701 5697 5694 5690 5687 5683 5679 5674 5671 5669 5666 5663 5661 5658 5655 5653 5650 5648 5645 5642 5639
5749 5748 5754 5732 5727 5722 5728 5734 5743 5757 5748 5747 5749 5748 5745 5744 5742 5738 5735 5732 5729 5724 5720 5717 5712 5707 5704 5701 5696 5693 5690 5686 5683 5679 5675 5671 5668 5665 5662 5659 5657 5655 5652 5649 5647 5644 5641 5639 5636
5756 5751 5736 5717 5700 5696 5712 5718 5720 5732 5733 5734 5734 5738 5738 5739 5737 5734 5729 5724 5721 5719 5716 5713 5709 5704 5700 5697 5692 5689 5685 5682 5678 5675 5672 5668 5665 5662 5659 5657 5655 5651 5649 5646 5643 5641 5638 5635 5633
5738 5734 5728 5720 5712 5694 5691 5705 5731 5728 5729 5726 5728 5731 5731 5731 5730 5726 5723 5719 5716 5713 5710 5706 5703 5699 5695 5692 5688 5684 5680 5677 5674 5671 5668 5665 5662 5659 5656 5654 5651 5648 5645 5643 5640 5638 5636 5632 5629
5736 5729 5721 5699 5697 5704 5694 5701 5731 5726 5726 5722 5722 5722 5725 5724 5724 5719 5716 5714 5711 5707 5705 5701 5698 5694 5691 5688 5684 5680 5676 5673 5670 5667 5664 5661 5659 5656 5654 5651 5648 5645 5643 5640 5637 5634 5632 5629 5625